User: anonymous   Login
Location: Chevoux
(46.3801°N, 4.9476°E)
Time: 21:00:09
(UTC+00:00)
Language:

Cosmos 1602 Rocket - Orbit

View from above orbital plane
View from above orbital plane
View from above satellite
View from above satellite

Ground track
Ground track

The orbit data is extracted from the following two-line orbital elements,

1 15332U 84105B   21110.55337353  .00000109  00000-0  10294-4 0  9991
2 15332  82.5326 316.1440 0022521  64.0201 356.1929 14.83457749953549
Epoch (UTC): 20 April 2021 13:16:51
Eccentricity: 0.0022521
inclination: 82.5326°
perigee height: 602 km
apogee height: 634 km
right ascension of ascending node: 316.1440°
argument of perigee: 64.0201°
revolutions per day: 14.83457749
mean anomaly at epoch: 356.1929°
orbit number at epoch: 95354

The dashed part of the orbit path shows where the satellite is in the earth's shadow,  

DLR